Regional Weather Roundup
Issued by NWS Mobile, AL

Home | Current Version | Previous Version | Text Only | Print | Product List | Glossary On
Versions: 1 2 3 4 5 6 7 8 9 10 11 12 13 14 15 16 17 18 19 20 21 22 23 24 25 26 27
000
ASUS44 KMOB 170610
RWRMOB
REGIONAL WEATHER ROUNDUP
NATIONAL WEATHER SERVICE MOBILE AL
100 AM CDT THU APR 17 2014

NOTE: "FAIR" INDICATES FEW OR NO CLOUDS BELOW 12,000 FEET WITH NO
      SIGNIFICANT WEATHER AND/OR OBSTRUCTIONS TO VISIBILITY.

  * THESE STATIONS ARE PART OF THE UNIVERSITY OF SOUTH ALABAMA
    MESONET AND ARE NOT UNDER NWS OR FAA QUALITY CONTROL.

ALZ061>064-170700-
COASTAL ALABAMA

CITY           SKY/WX    TMP DP  RH WIND       PRES   REMARKS
MOBILE REG APT FAIR      45  44  97 CALM      30.18R
6HR MIN TEMP:  45; 6HR MAX TEMP:  57;

BROOKLEY FIELD FAIR      56  49  77 E8        30.19R
6HR MIN TEMP:  49; 6HR MAX TEMP:  57;

USA CAMPUS*      N/A     45  45 100 CALM      30.20R
DOG RIVER*     NOT AVBL


CITY           SKY/WX    TMP DP  RH WIND       PRES   REMARKS
MOUNT VERNON*    N/A     41  39  93 CALM      30.19S
SARALAND*      NOT AVBL
BAY MINETTE*   NOT AVBL
LOXLEY*        NOT AVBL
ROBERTSDALE*   NOT AVBL
FAIRHOPE*      NOT AVBL
ELBERTA*       NOT AVBL
FOLEY*         NOT AVBL
GRAND BAY*       N/A     46  45  93 CALM      30.16R
DAUPHIN ISLND* NOT AVBL
BON SCOUR NWR* NOT AVBL
GULF SHORES    FAIR      49  47  92 CALM      30.16S

$$

ALZ051>060-170700-
INTERIOR SOUTHWEST AND SOUTH CENTRAL ALABAMA

CITY           SKY/WX    TMP DP  RH WIND       PRES   REMARKS
GREENVILLE     FAIR      50  39  66 E8        30.21
6HR MIN TEMP:  50; 6HR MAX TEMP:  61;

EVERGREEN      FAIR      45  42  89 CALM      30.21F
6HR MIN TEMP:  45; 6HR MAX TEMP:  64;

CASTLEBERRY*   NOT AVBL
ATMORE*          N/A     52  45  76 E7        30.20S
DIXIE*         NOT AVBL
ANDALUSIA/OPP  FAIR      53  42  66 SE7       30.21S
6HR MIN TEMP:  50; 6HR MAX TEMP:  64;

ANDALUSIA*     NOT AVBL
FLORALA APT    FAIR      51  43  74 E6        30.22S
6HR MIN TEMP:  51; 6HR MAX TEMP:  61;

FLORALA*         N/A     50  41  71 CALM      30.19S

$$

FLZ001>006-170700-
WESTERN FLORIDA PANHANDLE

CITY           SKY/WX    TMP DP  RH WIND       PRES   REMARKS
PENSACOLA      FAIR      56  44  64 E8        30.17S
6HR MIN TEMP:  52; 6HR MAX TEMP:  60;

NAS PENSACOLA  FAIR      48  47  96 CALM      30.16F
6HR MIN TEMP:  47; 6HR MAX TEMP:  58;

MILTON         FAIR      51  41  68 E8        30.17F
6HR MIN TEMP:  47; 6HR MAX TEMP:  61;

WHTNG S FIELD  FAIR      54  42  64 E10       30.18F
6HR MIN TEMP:  53; 6HR MAX TEMP:  62;



CITY           SKY/WX    TMP DP  RH WIND       PRES   REMARKS
WALNUT HILL*   NOT AVBL
JAY*           NOT AVBL
DUKE FIELD     FAIR      52  42  69 E6        30.19S
CRESTVIEW      FAIR      49  42  77 E5        30.21S
6HR MIN TEMP:  48; 6HR MAX TEMP:  63;

VALPARAISO     PTCLDY    56  46  70 E10       30.19S
6HR MIN TEMP:  56; 6HR MAX TEMP:  63;

DESTIN           N/A     59  46  62 MISG      30.18S

$$

MSZ076-079-170700-
INTERIOR SOUTHEAST MISSISSIPPI

CITY           SKY/WX    TMP DP  RH WIND       PRES   REMARKS
LEAKESVILLE*     N/A     45  41  87 CALM      30.18S
AGRICOLA*      NOT AVBL

$$

MARINE OBSERVATIONS

STATION/POSITION TIME  TEMP    WIND        PRES    WAVE
                       AIR SEA DIR/SP/G            HT/PER
                 (UTC) (F)     (DEG/KT/KT) (MB)    (FT/S)
PASCAGOULA       0600   56      40/  4/  5 1021.0F
PETIT BOIS ISLND 0600   60     110/  9/ 11 1021.4S
GRAND BAY        0500   59     120/  7     1022.0S
KATRINA CUT      0500   60     100/ 10     1022.0S
CEDAR POINT      0500   59     100/  8     1021.7F
E DAUPHIN ISLAND 0600   60      60/ 11/ 12 1021.0F
MIDDLE BAY LIGHT 0500   58      80/  9     1020.3F
USCG MOBILE BAY  0600   56 64   50/  3/  5 1020.8S
STATE DOCKS      0600   54 63              1021.5S
MEAHER PARK      0500   53      70/  1     1022.4F
WEEKS BAY        0500   45                   N/A
FORT MORGAN      0600   59      70/ 10/ 11 1020.7F
12 S ORANGE BCH  0600   62 66   70/ 12/ 16 1021.1F   2/ 3
PENSACOLA BAY    0600   61 67  120/  3/  7 1021.6R
64 S DAUPHIN ISL 0512   65 69  110/ 19/ 25 1020.4F
67 S FORT MORGAN 0400   62                 1020.3F

$$

SELECTED LOCATIONS ACROSS THE REGION

CITY           SKY/WX    TMP DP  RH WIND       PRES   REMARKS
NEW ORLEANS    FAIR      51  45  79 CALM      30.15F
GULFPORT       FAIR      51  46  83 N3        30.16S
PASCAGOULA AP  FAIR      46  45  96 CALM      30.17S
PASCAGOULA*      N/A     50  50 100 CALM      30.17R
HATTIESBURG    FAIR      44  43  96 CALM      30.18F
LAUREL         FAIR      45  39  81 CALM      30.18S
MERIDIAN       FAIR      43  41  93 CALM      30.19R
JACKSON        FAIR      46  39  76 CALM      30.17R
MONTGOMERY     FAIR      49  38  65 E8        30.25R
TROY           FAIR      49  40  71 E7        30.24F
KINSTON*       NOT AVBL
GENEVA*          N/A     52  45  76 SE8       30.24F
ASHFORD*       NOT AVBL
DOTHAN         FAIR      51  43  74 E7        30.27S
PANAMA CITY    MOCLDY    55  46  71 NE8       30.19S

$$




USA.gov is the U.S. government's official web portal to all federal, state and local government web resources and services.